MQC9213 DRRN-GFLL

Flight info

Callsign MQC9213
Flight time 2h 13m
Altitude 34000
Route BANGA1E BANGA G854 BULSA UG854 AMKAX UB727 OVLAG OVLAG1B
Aircraft MD11/H-SDE1E2E3FGHIJ2J3J4J5M1RWXY/LB1D1

Departure

Time 2026-05-04 20:27
Airport Diori Hamani International Airport (DRRN)

Arrival

Time 2026-05-04 22:41
Airport Lungi International Airport (GFLL)
Time Latitude Longitude Altitude Speed Heading
2026-05-04 20:10 13.47796 2.17661 739 ft 0 kts 177°
2026-05-04 20:18 13.47818 2.17661 739 ft 4 kts 182°
2026-05-04 20:18 13.47843 2.17662 739 ft 4 kts 168°
2026-05-04 20:18 13.47861 2.17654 739 ft 4 kts 137°
2026-05-04 20:18 13.47872 2.17643 739 ft 4 kts 109°
2026-05-04 20:19 13.47874 2.17620 739 ft 4 kts 81°
2026-05-04 20:19 13.47872 2.17606 740 ft 1 kts 86°
2026-05-04 20:19 13.47872 2.17604 740 ft 0 kts 86°
2026-05-04 20:22 13.47877 2.17633 740 ft 7 kts 69°
2026-05-04 20:22 13.47913 2.17649 739 ft 8 kts
2026-05-04 20:22 13.47990 2.17632 739 ft 11 kts 323°
2026-05-04 20:23 13.48005 2.17586 740 ft 5 kts 257°
2026-05-04 20:23 13.48000 2.17525 740 ft 12 kts 267°
2026-05-04 20:23 13.47993 2.17409 741 ft 20 kts 267°
2026-05-04 20:23 13.47985 2.17256 742 ft 20 kts 268°
2026-05-04 20:24 13.47981 2.17120 743 ft 18 kts 268°
2026-05-04 20:24 13.47977 2.17007 743 ft 12 kts 277°
2026-05-04 20:24 13.48008 2.16970 742 ft 5 kts 326°
2026-05-04 20:24 13.48036 2.16960 742 ft 4 kts 351°
2026-05-04 20:25 13.48063 2.16958 743 ft 4 kts 358°
2026-05-04 20:25 13.48098 2.16957 744 ft 6 kts 358°
2026-05-04 20:25 13.48147 2.16956 744 ft 7 kts
2026-05-04 20:25 13.48164 2.16970 741 ft 4 kts 58°
2026-05-04 20:26 13.48166 2.17010 742 ft 7 kts 89°
2026-05-04 20:26 13.48166 2.17021 744 ft 0 kts 89°
2026-05-04 20:26 13.48169 2.17105 740 ft 44 kts 88°
2026-05-04 20:26 13.48198 2.17727 737 ft 127 kts 87°
2026-05-04 20:27 13.48246 2.18875 735 ft 191 kts 88°
2026-05-04 20:27 13.48308 2.20264 1274 ft 197 kts 87°
2026-05-04 20:27 13.48153 2.21674 1965 ft 198 kts 118°
2026-05-04 20:27 13.47238 2.22618 2699 ft 192 kts 159°
2026-05-04 20:28 13.45910 2.22919 3360 ft 197 kts 175°
2026-05-04 20:28 13.44564 2.22817 3985 ft 202 kts 201°
2026-05-04 20:28 13.43357 2.21946 4199 ft 226 kts 233°
2026-05-04 20:28 13.42672 2.20448 4364 ft 243 kts 254°
2026-05-04 20:29 13.42194 2.18713 4499 ft 262 kts 255°
2026-05-04 20:29 13.41698 2.16829 4696 ft 281 kts 255°
2026-05-04 20:29 13.41182 2.14883 5394 ft 284 kts 256°
2026-05-04 20:29 13.40656 2.12914 6090 ft 288 kts 255°
2026-05-04 20:30 13.40121 2.10926 6802 ft 291 kts 256°
2026-05-04 20:30 13.39574 2.08903 7507 ft 295 kts 256°
2026-05-04 20:30 13.39020 2.06860 8189 ft 299 kts 256°
2026-05-04 20:30 13.38457 2.04791 8873 ft 303 kts 256°
2026-05-04 20:31 13.37886 2.02693 9569 ft 307 kts 257°
2026-05-04 20:31 13.37303 2.00551 10013 ft 321 kts 256°
2026-05-04 20:31 13.36680 1.98255 10139 ft 346 kts 256°
2026-05-04 20:31 13.36013 1.95799 10260 ft 369 kts 256°
2026-05-04 20:32 13.35309 1.93222 10735 ft 378 kts 256°
2026-05-04 20:32 13.34592 1.90607 11389 ft 383 kts 256°
2026-05-04 20:32 13.33866 1.87964 12066 ft 387 kts 256°
2026-05-04 20:32 13.33133 1.85293 12725 ft 392 kts 256°
2026-05-04 20:33 13.32391 1.82587 13371 ft 396 kts 256°
2026-05-04 20:33 13.31641 1.79850 13960 ft 401 kts 255°
2026-05-04 20:33 13.30881 1.77077 14555 ft 404 kts 255°
2026-05-04 20:33 13.30115 1.74285 15144 ft 408 kts 255°
2026-05-04 20:34 13.29344 1.71478 15726 ft 412 kts 255°
2026-05-04 20:34 13.28566 1.68642 16297 ft 415 kts 255°
2026-05-04 20:34 13.27778 1.65774 16877 ft 419 kts 255°
2026-05-04 20:34 13.26985 1.62888 17445 ft 422 kts 255°
2026-05-04 20:35 13.26184 1.59971 18011 ft 426 kts 255°
2026-05-04 20:35 13.25376 1.57033 18508 ft 429 kts 255°
2026-05-04 20:35 13.24561 1.54074 18999 ft 432 kts 255°
2026-05-04 20:35 13.23740 1.51089 19487 ft 435 kts 254°
2026-05-04 20:36 13.22914 1.48091 19957 ft 438 kts 254°
2026-05-04 20:36 13.22082 1.45071 20425 ft 441 kts 254°
2026-05-04 20:36 13.21243 1.42029 20898 ft 444 kts 254°
2026-05-04 20:36 13.20397 1.38967 21361 ft 447 kts 254°
2026-05-04 20:37 13.19542 1.35886 21842 ft 451 kts 254°
2026-05-04 20:37 13.18681 1.32785 22296 ft 454 kts 254°
2026-05-04 20:37 13.17814 1.29658 22748 ft 457 kts 254°
2026-05-04 20:37 13.16944 1.26516 23200 ft 460 kts 254°
2026-05-04 20:38 13.16080 1.23393 23608 ft 462 kts 254°
2026-05-04 20:38 13.15200 1.20215 24041 ft 463 kts 254°
2026-05-04 20:38 13.14320 1.17033 24454 ft 465 kts 254°
2026-05-04 20:38 13.13435 1.13838 24873 ft 466 kts 254°
2026-05-04 20:39 13.12548 1.10636 25323 ft 466 kts 253°
2026-05-04 20:39 13.11658 1.07426 25725 ft 468 kts 254°
2026-05-04 20:39 13.10768 1.04214 26152 ft 468 kts 254°
2026-05-04 20:39 13.09875 1.00998 26587 ft 469 kts 254°
2026-05-04 20:40 13.08982 0.97782 27002 ft 469 kts 254°
2026-05-04 20:40 13.08090 0.94571 27462 ft 469 kts 254°
2026-05-04 20:40 13.07194 0.91347 27779 ft 472 kts 254°
2026-05-04 20:40 13.06294 0.88108 28149 ft 473 kts 254°
2026-05-04 20:41 13.05391 0.84864 28517 ft 474 kts 254°
2026-05-04 20:41 13.04483 0.81604 28864 ft 476 kts 254°
2026-05-04 20:41 13.03573 0.78337 29222 ft 477 kts 254°
2026-05-04 20:41 13.02661 0.75063 29590 ft 478 kts 254°
2026-05-04 20:42 13.01745 0.71776 29937 ft 480 kts 254°
2026-05-04 20:42 13.00826 0.68481 30237 ft 482 kts 254°
2026-05-04 20:42 12.99903 0.65176 30603 ft 482 kts 254°
2026-05-04 20:42 12.98982 0.61878 30996 ft 481 kts 254°
2026-05-04 20:43 12.98063 0.58589 31394 ft 479 kts 254°
2026-05-04 20:43 12.97154 0.55352 31789 ft 478 kts 254°
2026-05-04 20:43 12.96235 0.52082 32169 ft 476 kts 254°
2026-05-04 20:43 12.95320 0.48827 32555 ft 475 kts 255°
2026-05-04 20:44 12.94408 0.45578 32929 ft 474 kts 255°
2026-05-04 20:44 12.93487 0.42295 33293 ft 472 kts 255°
2026-05-04 20:44 12.92593 0.39106 33637 ft 471 kts 255°
2026-05-04 20:44 12.91689 0.35883 33957 ft 470 kts 255°
2026-05-04 20:45 12.90786 0.32665 34240 ft 469 kts 255°
2026-05-04 20:45 12.89886 0.29457 34521 ft 468 kts 255°
2026-05-04 20:45 12.88987 0.26258 34792 ft 467 kts 255°
2026-05-04 20:45 12.88090 0.23065 35050 ft 466 kts 255°
2026-05-04 20:46 12.87194 0.19878 35303 ft 465 kts 255°
2026-05-04 20:46 12.86301 0.16701 35550 ft 464 kts 255°
2026-05-04 20:46 12.85409 0.13533 35773 ft 463 kts 255°
2026-05-04 20:46 12.84514 0.10353 35838 ft 466 kts 255°
2026-05-04 20:47 12.82714 0.03979 35865 ft 464 kts 254°
2026-05-04 20:47 12.80702 -0.02288 35868 ft 463 kts 252°
2026-05-04 20:48 12.78605 -0.08530 35863 ft 463 kts 252°
2026-05-04 20:48 12.76542 -0.14787 35860 ft 464 kts 253°
2026-05-04 20:49 12.74502 -0.21048 35864 ft 465 kts 253°
2026-05-04 20:49 12.72458 -0.27335 35866 ft 465 kts 253°
2026-05-04 20:50 12.70414 -0.33614 35877 ft 465 kts 253°
2026-05-04 20:50 12.68382 -0.39849 35862 ft 465 kts 253°
2026-05-04 20:51 12.66334 -0.46125 35871 ft 465 kts 253°
2026-05-04 20:51 12.64284 -0.52401 35879 ft 465 kts 253°
2026-05-04 20:52 12.62228 -0.58675 35873 ft 465 kts 252°
2026-05-04 20:52 12.60172 -0.64948 35886 ft 465 kts 252°
2026-05-04 20:53 12.58118 -0.71220 35881 ft 465 kts 252°
2026-05-04 20:53 12.56062 -0.77494 35884 ft 465 kts 253°
2026-05-04 20:54 12.54009 -0.83752 35877 ft 463 kts 253°
2026-05-04 20:54 12.51956 -0.90007 35882 ft 463 kts 253°
2026-05-04 20:55 12.49904 -0.96253 35878 ft 463 kts 253°
2026-05-04 20:55 12.47848 -1.02506 35880 ft 463 kts 253°
2026-05-04 20:56 12.45791 -1.08753 35883 ft 463 kts 253°
2026-05-04 20:56 12.43733 -1.15003 35886 ft 463 kts 252°
2026-05-04 20:57 12.41690 -1.21198 35885 ft 462 kts 252°
2026-05-04 20:57 12.39634 -1.27430 35891 ft 463 kts 252°
2026-05-04 20:58 12.37566 -1.33688 35888 ft 465 kts 252°
2026-05-04 20:58 12.35491 -1.39940 35884 ft 464 kts 252°
2026-05-04 20:59 12.33417 -1.46193 35884 ft 464 kts 252°
2026-05-04 20:59 12.31347 -1.52449 35884 ft 464 kts 252°
2026-05-04 21:00 12.29284 -1.58708 35884 ft 465 kts 252°
2026-05-04 21:00 12.27220 -1.64975 35897 ft 465 kts 252°
2026-05-04 21:01 12.25154 -1.71240 35905 ft 465 kts 252°
2026-05-04 21:01 12.23088 -1.77499 35905 ft 465 kts 252°
2026-05-04 21:02 12.21019 -1.83763 35903 ft 465 kts 252°
2026-05-04 21:02 12.18947 -1.90031 35903 ft 465 kts 252°
2026-05-04 21:03 12.16870 -1.96308 35904 ft 468 kts 252°
2026-05-04 21:03 12.14783 -2.02609 35901 ft 468 kts 252°
2026-05-04 21:04 12.12699 -2.08896 35901 ft 468 kts 252°
2026-05-04 21:04 12.10609 -2.15195 35902 ft 468 kts 252°
2026-05-04 21:05 12.08520 -2.21487 35902 ft 468 kts 252°
2026-05-04 21:05 12.06427 -2.27784 35903 ft 468 kts 252°
2026-05-04 21:06 12.04343 -2.34034 35896 ft 468 kts 252°
2026-05-04 21:06 12.02584 -2.39300 35901 ft 468 kts 252°
2026-05-04 21:07 12.00478 -2.45612 35904 ft 470 kts 252°
2026-05-04 21:07 11.98372 -2.51930 35902 ft 470 kts 252°
2026-05-04 21:08 11.96264 -2.58247 35903 ft 470 kts 252°
2026-05-04 21:08 11.94155 -2.64564 35900 ft 470 kts 252°
2026-05-04 21:09 11.92044 -2.70881 35900 ft 470 kts 252°
2026-05-04 21:09 11.89930 -2.77201 35901 ft 470 kts 252°
2026-05-04 21:10 11.87815 -2.83519 35903 ft 470 kts 252°
2026-05-04 21:10 11.85698 -2.89838 35905 ft 470 kts 252°
2026-05-04 21:11 11.83580 -2.96152 35906 ft 470 kts 252°
2026-05-04 21:11 11.81462 -3.02465 35903 ft 470 kts 252°
2026-05-04 21:12 11.79354 -3.08741 35907 ft 470 kts 252°
2026-05-04 21:12 11.77215 -3.15088 35908 ft 470 kts 252°
2026-05-04 21:13 11.75101 -3.21351 35908 ft 470 kts 252°
2026-05-04 21:13 11.72977 -3.27654 35909 ft 470 kts 252°
2026-05-04 21:14 11.70852 -3.33961 35909 ft 470 kts 252°
2026-05-04 21:14 11.68726 -3.40264 35914 ft 470 kts 252°
2026-05-04 21:15 11.66598 -3.46569 35919 ft 470 kts 252°
2026-05-04 21:15 11.64468 -3.52876 35913 ft 470 kts 252°
2026-05-04 21:16 11.62335 -3.59187 35914 ft 471 kts 252°
2026-05-04 21:16 11.60200 -3.65496 35915 ft 471 kts 252°
2026-05-04 21:17 11.58064 -3.71805 35917 ft 471 kts 252°
2026-05-04 21:17 11.55926 -3.78115 35913 ft 471 kts 252°
2026-05-04 21:18 11.53788 -3.84419 35913 ft 470 kts 252°
2026-05-04 21:18 11.51661 -3.90682 35924 ft 466 kts 252°
2026-05-04 21:19 11.49536 -3.96917 35916 ft 467 kts 252°
2026-05-04 21:19 11.47405 -4.03171 35923 ft 467 kts 252°
2026-05-04 21:20 11.45278 -4.09420 35910 ft 467 kts 252°
2026-05-04 21:20 11.43150 -4.15671 35925 ft 467 kts 252°
2026-05-04 21:21 11.41021 -4.21921 35927 ft 467 kts 252°
2026-05-04 21:21 11.38890 -4.28169 35917 ft 467 kts 252°
2026-05-04 21:22 11.36758 -4.34417 35932 ft 467 kts 252°
2026-05-04 21:22 11.34625 -4.40665 35929 ft 467 kts 252°
2026-05-04 21:23 11.32490 -4.46910 35921 ft 467 kts 252°
2026-05-04 21:23 11.30353 -4.53158 35932 ft 467 kts 252°
2026-05-04 21:24 11.28215 -4.59403 35929 ft 466 kts 252°
2026-05-04 21:24 11.26099 -4.65579 35930 ft 464 kts 252°
2026-05-04 21:25 11.23952 -4.71841 35928 ft 466 kts 252°
2026-05-04 21:25 11.21823 -4.78025 35944 ft 466 kts 252°
2026-05-04 21:26 11.19676 -4.84264 35930 ft 466 kts 252°
2026-05-04 21:26 11.17537 -4.90486 35930 ft 466 kts 252°
2026-05-04 21:27 11.15396 -4.96712 35931 ft 466 kts 252°
2026-05-04 21:27 11.13254 -5.02939 35942 ft 466 kts 252°
2026-05-04 21:28 11.11109 -5.09167 35948 ft 466 kts 252°
2026-05-04 21:28 11.08962 -5.15397 35939 ft 466 kts 252°
2026-05-04 21:29 11.06815 -5.21623 35940 ft 466 kts 252°
2026-05-04 21:29 11.04668 -5.27841 35948 ft 466 kts 252°
2026-05-04 21:30 11.02518 -5.34066 35948 ft 466 kts 252°
2026-05-04 21:30 11.00377 -5.40300 35932 ft 466 kts 254°
2026-05-04 21:31 10.98571 -5.49968 35939 ft 464 kts 264°
2026-05-04 21:32 10.97769 -5.56476 35936 ft 464 kts 264°
2026-05-04 21:32 10.96921 -5.62985 35936 ft 464 kts 263°
2026-05-04 21:33 10.96033 -5.69492 35943 ft 464 kts 263°
2026-05-04 21:33 10.95134 -5.75992 35935 ft 464 kts 263°
2026-05-04 21:34 10.94235 -5.82477 35935 ft 464 kts 263°
2026-05-04 21:34 10.93339 -5.88935 35943 ft 464 kts 263°
2026-05-04 21:35 10.92437 -5.95437 35939 ft 464 kts 263°
2026-05-04 21:35 10.91533 -6.01940 35941 ft 464 kts 263°
2026-05-04 21:36 10.90629 -6.08436 35934 ft 464 kts 263°
2026-05-04 21:36 10.89714 -6.14942 35946 ft 465 kts 263°
2026-05-04 21:37 10.88795 -6.21453 35935 ft 465 kts 263°
2026-05-04 21:37 10.87876 -6.27969 35946 ft 465 kts 263°
2026-05-04 21:38 10.86959 -6.34476 35950 ft 465 kts 263°
2026-05-04 21:38 10.86041 -6.40989 35953 ft 465 kts 263°
2026-05-04 21:39 10.85121 -6.47500 35949 ft 465 kts 263°
2026-05-04 21:39 10.84197 -6.54029 35953 ft 467 kts 262°
2026-05-04 21:40 10.83269 -6.60571 35961 ft 467 kts 262°
2026-05-04 21:40 10.82342 -6.67103 35960 ft 467 kts 262°
2026-05-04 21:41 10.81411 -6.73653 35960 ft 467 kts 262°
2026-05-04 21:41 10.80479 -6.80193 35962 ft 467 kts 262°
2026-05-04 21:42 10.79545 -6.86738 35976 ft 468 kts 262°
2026-05-04 21:42 10.78601 -6.93299 35971 ft 469 kts 262°
2026-05-04 21:43 10.77655 -6.99868 35971 ft 469 kts 262°
2026-05-04 21:43 10.76712 -7.06433 35975 ft 469 kts 262°
2026-05-04 21:44 10.75769 -7.13002 35972 ft 469 kts 262°
2026-05-04 21:44 10.74824 -7.19568 35984 ft 469 kts 262°
2026-05-04 21:45 10.73878 -7.26136 35981 ft 470 kts 262°
2026-05-04 21:45 10.72933 -7.32679 35983 ft 471 kts 262°
2026-05-04 21:46 10.71981 -7.39266 35983 ft 471 kts 262°
2026-05-04 21:46 10.71028 -7.45851 35981 ft 471 kts 262°
2026-05-04 21:47 10.70073 -7.52437 35985 ft 471 kts 262°
2026-05-04 21:47 10.69116 -7.59024 35985 ft 471 kts 262°
2026-05-04 21:48 10.68160 -7.65603 35990 ft 469 kts 262°
2026-05-04 21:48 10.67203 -7.72158 35978 ft 469 kts 262°
2026-05-04 21:49 10.66240 -7.78709 35981 ft 469 kts 262°
2026-05-04 21:49 10.65279 -7.85265 35994 ft 469 kts 262°
2026-05-04 21:50 10.64319 -7.91824 35989 ft 469 kts 262°
2026-05-04 21:50 10.63356 -7.98382 35990 ft 469 kts 262°
2026-05-04 21:51 10.62213 -8.04907 35990 ft 469 kts 259°
2026-05-04 21:51 10.60942 -8.11415 35987 ft 469 kts 259°
2026-05-04 21:52 10.59881 -8.16821 35986 ft 469 kts 259°
2026-05-04 21:52 10.58617 -8.23324 35985 ft 469 kts 259°
2026-05-04 21:53 10.57357 -8.29831 35989 ft 469 kts 259°
2026-05-04 21:53 10.56098 -8.36337 35987 ft 469 kts 259°
2026-05-04 21:54 10.54838 -8.42839 35988 ft 469 kts 259°
2026-05-04 21:54 10.53576 -8.49338 35995 ft 469 kts 259°
2026-05-04 21:55 10.52313 -8.55838 35992 ft 469 kts 259°
2026-05-04 21:55 10.51048 -8.62338 35983 ft 469 kts 259°
2026-05-04 21:56 10.49779 -8.68827 35989 ft 469 kts 259°
2026-05-04 21:56 10.48460 -8.75312 35999 ft 468 kts 258°
2026-05-04 21:57 10.47130 -8.81783 35983 ft 468 kts 258°
2026-05-04 21:57 10.45801 -8.88254 35982 ft 468 kts 258°
2026-05-04 21:58 10.44474 -8.94730 35971 ft 469 kts 258°
2026-05-04 21:58 10.43139 -9.01239 35971 ft 471 kts 258°
2026-05-04 21:59 10.41810 -9.07713 35973 ft 471 kts 258°
2026-05-04 21:59 10.40472 -9.14222 35960 ft 470 kts 258°
2026-05-04 22:00 10.39136 -9.20713 35962 ft 469 kts 258°
2026-05-04 22:00 10.37799 -9.27198 35953 ft 469 kts 258°
2026-05-04 22:01 10.36409 -9.33674 35957 ft 469 kts 258°
2026-05-04 22:01 10.34993 -9.40141 35955 ft 469 kts 258°
2026-05-04 22:02 10.33578 -9.46612 35948 ft 469 kts 258°
2026-05-04 22:02 10.32169 -9.53065 35951 ft 467 kts 258°
2026-05-04 22:03 10.30762 -9.59505 35955 ft 467 kts 258°
2026-05-04 22:03 10.29354 -9.65946 35955 ft 467 kts 258°
2026-05-04 22:04 10.27946 -9.72380 35958 ft 468 kts 258°
2026-05-04 22:04 10.26533 -9.78829 35959 ft 468 kts 258°
2026-05-04 22:05 10.25120 -9.85277 35958 ft 467 kts 258°
2026-05-04 22:05 10.23709 -9.91704 35958 ft 466 kts 258°
2026-05-04 22:06 10.22307 -9.98085 35958 ft 466 kts 258°
2026-05-04 22:06 10.20886 -10.04546 35954 ft 466 kts 258°
2026-05-04 22:07 10.19486 -10.10927 35951 ft 466 kts 258°
2026-05-04 22:07 10.18080 -10.17350 35950 ft 466 kts 258°
2026-05-04 22:08 10.16674 -10.23764 35952 ft 465 kts 258°
2026-05-04 22:08 10.15273 -10.30152 35953 ft 464 kts 258°
2026-05-04 22:09 10.13870 -10.36545 35953 ft 464 kts 258°
2026-05-04 22:09 10.12465 -10.42940 35957 ft 464 kts 258°
2026-05-04 22:10 10.11058 -10.49333 35954 ft 464 kts 258°
2026-05-04 22:10 10.09651 -10.55724 35955 ft 464 kts 258°
2026-05-04 22:11 10.08243 -10.62112 35958 ft 463 kts 258°
2026-05-04 22:11 10.06839 -10.68476 35957 ft 462 kts 258°
2026-05-04 22:12 10.05433 -10.74845 35963 ft 462 kts 258°
2026-05-04 22:12 10.04161 -10.81241 35964 ft 462 kts 261°
2026-05-04 22:13 10.03170 -10.87636 35966 ft 462 kts 262°
2026-05-04 22:13 10.02214 -10.94089 35960 ft 462 kts 262°
2026-05-04 22:14 10.01240 -11.00551 35966 ft 464 kts 261°
2026-05-04 22:14 10.00252 -11.07017 35965 ft 464 kts 261°
2026-05-04 22:15 9.99261 -11.13483 35965 ft 464 kts 261°
2026-05-04 22:15 9.98268 -11.19950 35965 ft 464 kts 261°
2026-05-04 22:16 9.97274 -11.26417 35965 ft 464 kts 261°
2026-05-04 22:16 9.96279 -11.32881 35963 ft 464 kts 261°
2026-05-04 22:17 9.95004 -11.39295 35961 ft 465 kts 251°
2026-05-04 22:17 9.91940 -11.45041 35964 ft 466 kts 235°
2026-05-04 22:18 9.87962 -11.50255 35962 ft 468 kts 233°
2026-05-04 22:18 9.84018 -11.55499 35964 ft 467 kts 234°
2026-05-04 22:18 9.82095 -11.58154 35783 ft 467 kts 235°
2026-05-04 22:19 9.80208 -11.60796 35424 ft 462 kts 235°
2026-05-04 22:19 9.78340 -11.63433 34984 ft 459 kts 235°
2026-05-04 22:19 9.76483 -11.66062 34450 ft 459 kts 236°
2026-05-04 22:19 9.74624 -11.68694 33925 ft 460 kts 235°
2026-05-04 22:20 9.72753 -11.71343 33347 ft 463 kts 235°
2026-05-04 22:20 9.70873 -11.73999 32807 ft 465 kts 235°
2026-05-04 22:20 9.68980 -11.76672 32268 ft 468 kts 235°
2026-05-04 22:20 9.67106 -11.79323 31745 ft 470 kts 236°
2026-05-04 22:21 9.65218 -11.82039 31212 ft 473 kts 236°
2026-05-04 22:21 9.63341 -11.84779 30666 ft 475 kts 236°
2026-05-04 22:21 9.61457 -11.87545 30119 ft 478 kts 237°
2026-05-04 22:21 9.59563 -11.90332 29478 ft 481 kts 236°
2026-05-04 22:22 9.57662 -11.93127 28873 ft 484 kts 236°
2026-05-04 22:22 9.55753 -11.95931 28238 ft 483 kts 236°
2026-05-04 22:22 9.53854 -11.98716 27614 ft 478 kts 236°
2026-05-04 22:22 9.51970 -12.01477 27006 ft 474 kts 236°
2026-05-04 22:23 9.50103 -12.04212 26405 ft 470 kts 236°
2026-05-04 22:23 9.48251 -12.06924 25812 ft 465 kts 235°
2026-05-04 22:23 9.46423 -12.09601 25224 ft 461 kts 236°
2026-05-04 22:23 9.44610 -12.12255 24646 ft 456 kts 235°
2026-05-04 22:24 9.42811 -12.14889 24068 ft 453 kts 235°
2026-05-04 22:24 9.41026 -12.17503 23490 ft 450 kts 235°
2026-05-04 22:24 9.39253 -12.20098 22826 ft 446 kts 234°
2026-05-04 22:24 9.37491 -12.22676 22221 ft 444 kts 234°
2026-05-04 22:25 9.35736 -12.25244 21648 ft 442 kts 234°
2026-05-04 22:25 9.33987 -12.27800 21071 ft 440 kts 234°
2026-05-04 22:25 9.32244 -12.30346 20518 ft 439 kts 233°
2026-05-04 22:25 9.30511 -12.32878 19962 ft 436 kts 233°
2026-05-04 22:26 9.28788 -12.35396 19408 ft 434 kts 233°
2026-05-04 22:26 9.27074 -12.37902 18856 ft 432 kts 233°
2026-05-04 22:26 9.25371 -12.40392 18309 ft 429 kts 233°
2026-05-04 22:26 9.23674 -12.42872 17700 ft 427 kts 233°
2026-05-04 22:27 9.22012 -12.45299 17121 ft 424 kts 233°
2026-05-04 22:27 9.20336 -12.47746 16573 ft 422 kts 233°
2026-05-04 22:27 9.18663 -12.50184 16036 ft 421 kts 233°
2026-05-04 22:27 9.16997 -12.52611 15489 ft 419 kts 233°
2026-05-04 22:28 9.15337 -12.55028 14950 ft 417 kts 232°
2026-05-04 22:28 9.13533 -12.57294 14416 ft 411 kts 223°
2026-05-04 22:28 9.11468 -12.59272 13885 ft 407 kts 218°
2026-05-04 22:28 9.09304 -12.61105 13328 ft 404 kts 216°
2026-05-04 22:29 9.07121 -12.62883 12780 ft 401 kts 216°
2026-05-04 22:29 9.04953 -12.64644 12266 ft 398 kts 216°
2026-05-04 22:29 9.02810 -12.66400 11752 ft 395 kts 216°
2026-05-04 22:29 9.00689 -12.68153 11270 ft 392 kts 216°
2026-05-04 22:30 8.98598 -12.69893 10960 ft 388 kts 216°
2026-05-04 22:30 8.96556 -12.71601 10832 ft 371 kts 217°
2026-05-04 22:30 8.94626 -12.73223 10697 ft 350 kts 216°
2026-05-04 22:30 8.92805 -12.74753 10572 ft 331 kts 216°
2026-05-04 22:31 8.91076 -12.76205 10442 ft 314 kts 216°
2026-05-04 22:31 8.89418 -12.77594 10281 ft 309 kts 216°
2026-05-04 22:31 8.87752 -12.78984 9911 ft 311 kts 216°
2026-05-04 22:31 8.86082 -12.80378 9397 ft 311 kts 216°
2026-05-04 22:32 8.84424 -12.81764 8899 ft 308 kts 216°
2026-05-04 22:32 8.82782 -12.83138 8421 ft 305 kts 216°
2026-05-04 22:32 8.81157 -12.84498 7977 ft 302 kts 217°
2026-05-04 22:32 8.79550 -12.85843 7542 ft 298 kts 217°
2026-05-04 22:33 8.77963 -12.87171 7139 ft 294 kts 217°
2026-05-04 22:33 8.76399 -12.88481 6745 ft 290 kts 217°
2026-05-04 22:33 8.74856 -12.89772 6356 ft 286 kts 217°
2026-05-04 22:33 8.73330 -12.91048 5945 ft 283 kts 217°
2026-05-04 22:34 8.71828 -12.92305 5550 ft 279 kts 218°
2026-05-04 22:34 8.70338 -12.93551 5186 ft 276 kts 218°
2026-05-04 22:34 8.68883 -12.94768 4848 ft 274 kts 218°
2026-05-04 22:34 8.67420 -12.95992 4500 ft 271 kts 218°
2026-05-04 22:35 8.65979 -12.97176 4163 ft 264 kts 213°
2026-05-04 22:35 8.64369 -12.98008 3913 ft 259 kts 199°
2026-05-04 22:35 8.62703 -12.98590 3645 ft 242 kts 197°
2026-05-04 22:35 8.61180 -12.99074 3414 ft 217 kts 197°
2026-05-04 22:36 8.59823 -12.99502 3249 ft 195 kts 197°
2026-05-04 22:36 8.58585 -13.00051 3142 ft 194 kts 212°
2026-05-04 22:36 8.57588 -13.00953 3071 ft 194 kts 231°
2026-05-04 22:36 8.56996 -13.02171 3006 ft 195 kts 253°
2026-05-04 22:37 8.56965 -13.03544 2913 ft 198 kts 278°
2026-05-04 22:37 8.57250 -13.04921 2679 ft 200 kts 280°
2026-05-04 22:37 8.57585 -13.06275 2425 ft 198 kts 283°
2026-05-04 22:37 8.57981 -13.07598 2174 ft 195 kts 285°
2026-05-04 22:38 8.58381 -13.08900 1920 ft 192 kts 285°
2026-05-04 22:38 8.58775 -13.10189 1686 ft 191 kts 285°
2026-05-04 22:38 8.59153 -13.11425 1398 ft 173 kts 285°
2026-05-04 22:38 8.59500 -13.12557 1196 ft 168 kts 285°
2026-05-04 22:39 8.59843 -13.13679 995 ft 166 kts 285°
2026-05-04 22:39 8.60183 -13.14794 793 ft 166 kts 286°
2026-05-04 22:39 8.60522 -13.15909 564 ft 172 kts 286°
2026-05-04 22:39 8.60912 -13.17135 408 ft 183 kts 286°
2026-05-04 22:40 8.61258 -13.18276 115 ft 159 kts 286°
2026-05-04 22:40 8.61525 -13.19155 108 ft 102 kts 287°
2026-05-04 22:40 8.61680 -13.19667 106 ft 61 kts 287°
2026-05-04 22:40 8.61757 -13.19922 105 ft 52 kts 287°
2026-05-04 22:41 8.61823 -13.20108 106 ft 12 kts 312°
2026-05-04 22:41 8.61858 -13.20122 104 ft 5 kts 354°
2026-05-04 22:41 8.61938 -13.20103 107 ft 15 kts 27°
2026-05-04 22:41 8.61956 -13.20020 106 ft 12 kts 103°
2026-05-04 22:42 8.61925 -13.19913 104 ft 18 kts 107°
2026-05-04 22:42 8.61886 -13.19781 106 ft 20 kts 107°
2026-05-04 22:42 8.61858 -13.19691 106 ft 20 kts 107°
2026-05-04 22:42 8.61818 -13.19562 106 ft 19 kts 107°
2026-05-04 22:43 8.61779 -13.19435 106 ft 19 kts 107°
2026-05-04 22:43 8.61741 -13.19312 106 ft 18 kts 107°
2026-05-04 22:43 8.61704 -13.19191 106 ft 18 kts 107°
2026-05-04 22:43 8.61668 -13.19072 104 ft 17 kts 107°
2026-05-04 22:44 8.61633 -13.18959 105 ft 17 kts 107°
2026-05-04 22:44 8.61605 -13.18858 106 ft 9 kts 95°
2026-05-04 22:44 8.61612 -13.18841 105 ft 1 kts 51°
2026-05-04 22:44 8.61625 -13.18836 107 ft 4 kts 19°
2026-05-04 22:45 8.61678 -13.18822 106 ft 12 kts 15°
2026-05-04 22:45 8.61724 -13.18810 106 ft 0 kts 15°